Regional Weather Roundup
Issued by NWS

Home | Current Version | Previous Version | Text Only | Print | Product List | Glossary On
Versions: 1 2 3 4 5 6 7 8 9 10 11 12 13 14 15 16 17 18 19 20 21 22 23 24 25 26 27 28 29 30 31 32 33 34 35 36 37 38 39 40 41 42 43 44 45 46 47 48 49 50
000
ASUS43 KTOP 251008
RWRKS

WEATHER ROUNDUP FOR KANSAS
NATIONAL WEATHER SERVICE GOODLAND KS
500 AM CDT SAT MAR 25 2017

NOTE:  "FAIR" INDICATES FEW OR NO CLOUDS BELOW 12,000 FEET WITH NO
SIGNIFICANT WEATHER AND/OR OBSTRUCTIONS TO VISIBILITY.

KSZ001>006-013>018-027>032-041>047-251100-
NORTHWEST KANSAS

CITY           SKY/WX    TMP DP  RH WIND       PRES   REMARKS
GOODLAND       CLEAR     32  30  92 NW8       30.05F
HAYS             N/A     42  37  82 N14       29.98S
HILL CITY      CLOUDY    43  40  89 N10       30.01F
RUSSELL        CLOUDY    41  39  93 N13       29.96R
$$

KSZ061>065-074>080-084>089-251100-
SOUTHWEST KANSAS

CITY           SKY/WX    TMP DP  RH WIND       PRES   REMARKS
DODGE CITY     CLOUDY    42  40  92 NW16G23   29.98F
ELKHART          N/A     36  24  62 NW9         N/A
GARDEN CITY    CLOUDY    42  38  85 NW12      30.01F
GREAT BEND     CLOUDY    42  39  89 N23       29.96S
LIBERAL        CLOUDY    41  34  75 NW14      30.03R
PRATT          CLOUDY    39  36  87 N23G31    29.94S WCI  29
$$

KSZ066>073-081>083-090>101-251100-
SOUTHEAST KANSAS

CITY           SKY/WX    TMP DP  RH WIND       PRES   REMARKS
CHANUTE        CLOUDY    50  47  89 NW17      29.76R
COFFEYVILLE    CLOUDY    53  52  96 VRB3      29.79R
HUTCHINSON     LGT RAIN  42  40  92 N17G25    29.91R
MEDICINE LODGE   N/A     43  38  82 N23G29    29.91S
NEWTON         LGT RAIN  42  40  92 NW26G33   29.86F
PARSONS        CLOUDY    52  50  93 NW17      29.76R
WICHITA INTL   LGT RAIN  43  42  97 N24G33    29.87R
WICHITA JABRA  LGT RAIN  43  41  93 NW16      29.87R
WICHITA MCCONL LGT RAIN  43  41  92 N22G30    29.86R
WINFIELD       LGT RAIN  45  43  93 NW17G24   29.87R FOG
$$

KSZ007>012-019>026-033>040-048>060-102>105-251100-
NORTHEAST KANSAS

CITY           SKY/WX    TMP DP  RH WIND       PRES   REMARKS
CONCORDIA      RAIN      41  41 100 N15       29.93S FOG
EMPORIA        LGT RAIN  44  44 100 NW20      29.80R FOG
LAWRENCE       CLOUDY    48  47  96 NW14      29.78R FOG
MANHATTAN      LGT RAIN  43  41  93 N5        29.88R FOG
MARYSVILLE     LGT RAIN  41  39  93 N16       29.88S
OLATHE IND     CLOUDY    50  49  96 W10       29.77R
OLATHE EXE     CLOUDY    51  51 100 N6        29.75R FOG
SALINA         LGT RAIN  44  41  89 N20       29.92R
TOPEKA BILLARD LGT RAIN  46  46 100 NW14G21   29.81R
TOPEKA FORBES  LGT RAIN  47  46  97 NW18      29.79S FOG
$$



USA.gov is the U.S. government's official web portal to all federal, state and local government web resources and services.